Theta_e
306 306 307 307 307 307 307 308 308 308 308 308 308 308 308 307 307 307 306 305 304 304 304 303 303 302 301 301 301 302 303 302 302 306 310 309 309 311 308 308 308 306 307 307 310 313 312 313 314 314 315 316 317 318 319 319 318 317 317 317 316 317 318 318 320 320 320 321 320 320 320 319 320 323 328 329 327 327 325 324 326 326 333 339 342 348 351 351
305 305 306 306 306 306 306 307 307 307 307 307 308 308 308 308 307 307 307 306 305 303 303 303 302 302 301 300 300 302 302 303 305 307 309 308 308 308 306 307 307 307 306 307 311 312 312 313 313 314 314 315 317 317 318 320 318 317 317 316 316 318 319 320 321 321 321 320 321 321 320 320 320 325 333 333 330 329 325 326 328 327 338 346 348 350 351 351
304 304 304 305 305 305 305 305 305 305 306 306 307 307 308 308 308 308 307 307 306 305 302 301 302 301 300 300 301 302 303 306 309 310 309 307 306 306 306 306 306 308 307 307 311 311 312 314 314 313 314 315 316 316 318 319 319 317 318 316 317 318 319 321 321 321 320 319 321 321 320 320 320 325 332 334 332 331 327 326 329 330 339 347 349 350 351 351
299 300 301 301 301 301 301 302 302 303 304 304 305 306 307 307 308 308 307 307 307 306 304 302 302 300 299 300 301 302 306 310 312 312 311 308 306 306 306 306 306 307 307 308 311 311 312 313 314 314 313 315 316 316 317 318 318 318 317 317 318 319 319 320 321 320 320 319 319 320 320 320 320 323 329 331 331 332 330 327 329 334 338 343 349 351 351 351
297 297 297 298 298 298 298 298 298 299 301 302 303 304 306 307 307 307 308 307 307 307 306 304 302 300 300 300 300 303 308 312 311 313 311 309 307 306 307 306 306 306 306 308 311 311 311 312 314 314 314 315 316 316 317 318 318 318 317 317 319 320 319 320 321 319 319 318 318 319 319 320 321 322 324 324 328 331 330 330 332 336 337 338 348 351 350 350
300 300 299 298 297 297 297 297 297 297 297 299 301 303 304 305 306 307 307 308 307 307 307 306 304 301 300 300 300 304 310 311 311 313 310 308 307 306 307 306 306 306 306 308 311 311 311 312 314 315 315 314 315 315 317 318 318 318 318 318 319 319 320 319 320 319 318 318 318 319 319 320 321 321 322 321 325 331 332 333 332 335 336 338 347 350 350 350
302 302 302 301 300 299 298 298 297 297 297 297 298 300 301 303 305 306 307 307 308 307 307 307 305 303 301 300 302 306 309 310 310 311 309 307 307 307 306 307 307 305 307 309 311 311 311 313 314 315 315 314 315 315 316 317 318 318 317 319 319 319 319 319 320 319 318 318 318 319 319 320 320 320 321 321 323 328 334 335 333 336 337 342 348 350 350 350
303 303 303 303 302 301 300 300 299 298 297 297 296 297 299 301 303 305 306 307 308 307 307 307 306 304 301 301 305 309 309 309 310 310 308 306 307 307 306 312 313 306 308 311 310 311 311 313 314 315 315 314 315 315 316 316 317 317 317 319 319 319 319 319 320 319 319 318 318 318 319 320 321 320 320 323 323 327 336 338 337 340 341 345 348 349 349 350
302 302 302 302 302 303 302 301 300 300 299 298 296 296 297 298 301 303 305 306 307 307 307 307 307 305 303 303 307 309 309 309 309 310 308 306 307 307 306 316 320 312 311 312 310 311 311 312 313 314 315 316 315 315 316 316 316 317 317 318 319 319 319 319 319 318 318 318 318 318 318 320 320 320 321 325 326 329 337 339 339 342 344 345 347 349 349 349
301 301 301 301 301 302 302 302 302 302 301 300 298 297 296 297 299 302 304 305 306 307 307 307 307 306 304 305 308 308 308 309 309 309 308 306 306 307 307 312 317 317 314 312 311 311 311 312 313 314 315 315 316 315 316 316 316 318 318 318 318 318 319 319 319 319 318 317 318 318 318 320 320 321 324 325 328 335 338 338 340 342 343 344 345 348 349 349
300 300 299 299 299 300 300 301 302 303 302 302 300 298 297 296 297 300 302 304 305 306 307 307 307 306 305 306 307 308 308 308 309 308 307 306 305 306 308 309 312 315 316 313 311 311 311 312 313 314 314 315 315 315 316 316 317 318 318 318 317 317 319 319 319 319 319 318 318 318 319 320 320 323 327 330 333 339 339 339 342 341 341 344 346 348 348 348
298 297 296 296 297 298 298 299 301 302 302 302 302 300 298 297 297 298 301 303 305 306 307 307 307 306 306 306 307 308 308 308 307 307 307 307 306 306 307 308 309 310 314 315 312 311 311 311 313 314 314 314 314 315 315 316 317 317 317 317 316 317 317 318 319 319 319 318 318 319 317 318 320 321 327 337 339 339 339 341 343 340 342 345 347 348 348 347
297 296 295 294 295 296 297 297 299 301 302 302 302 301 300 298 297 297 299 302 304 306 307 307 307 306 306 307 307 307 307 306 305 305 306 306 307 307 307 307 308 308 311 314 313 312 310 311 312 313 314 314 315 315 315 316 316 316 316 316 316 316 316 318 318 319 319 318 319 318 314 316 319 320 333 342 341 339 341 343 343 342 344 346 348 348 347 347
299 298 297 296 296 296 297 297 297 300 301 301 301 301 301 299 298 297 298 301 303 305 306 307 306 306 306 307 307 307 306 306 305 305 305 306 307 308 308 308 308 308 310 313 314 312 310 311 312 313 314 314 315 315 315 316 316 316 316 315 316 314 315 318 318 318 317 317 319 318 314 316 318 328 340 342 342 342 343 345 345 344 345 346 348 348 347 347
301 300 300 299 298 297 297 297 297 298 300 300 301 301 301 300 299 297 297 300 302 304 305 307 306 306 307 307 307 307 306 306 306 304 304 306 307 308 309 308 308 309 310 313 314 312 311 311 312 313 314 314 315 315 315 315 315 316 314 313 314 313 315 319 318 317 317 318 319 318 315 317 327 337 342 342 343 345 344 346 347 345 346 347 348 348 347 347
301 301 301 300 300 298 297 297 297 298 299 300 300 301 301 300 300 298 298 299 301 303 305 306 306 306 307 307 307 307 306 306 306 305 305 306 307 308 309 308 309 310 312 313 312 312 311 312 312 313 314 314 314 314 315 314 314 315 313 312 313 312 314 317 318 318 318 318 318 318 315 319 334 341 343 343 343 344 345 347 346 346 346 347 348 348 347 346
301 301 301 301 301 300 298 297 296 297 298 299 300 300 301 301 300 299 299 299 300 303 304 305 306 306 306 306 307 307 306 307 306 306 306 306 307 308 309 309 310 311 313 312 311 311 311 312 312 312 313 314 313 314 314 312 312 314 314 313 313 314 314 315 317 318 318 317 318 318 317 324 334 338 343 344 344 343 345 347 346 346 346 347 348 347 346 345
300 301 301 301 301 300 300 298 296 296 296 298 300 300 300 301 300 299 299 300 301 303 304 305 305 305 307 307 307 308 308 307 306 306 306 307 307 308 309 309 311 312 312 311 310 311 312 312 312 312 313 313 314 313 312 312 313 313 313 312 314 315 314 315 317 318 318 317 318 318 317 326 334 336 341 342 342 341 343 346 347 346 346 346 347 346 343 342
300 299 299 300 301 300 300 299 297 296 295 297 299 300 300 301 300 300 301 302 303 304 304 305 305 306 307 308 307 307 307 307 306 306 306 307 307 308 309 309 311 312 312 311 310 311 312 312 312 312 312 312 313 313 313 314 315 315 315 313 314 314 314 317 318 318 318 317 319 318 317 326 332 334 338 340 342 341 339 344 346 346 346 347 345 340 337 336
299 299 298 299 300 300 300 299 297 296 295 296 299 301 301 302 302 302 302 303 303 304 305 305 305 306 307 307 307 307 307 306 306 306 306 307 307 308 309 309 311 312 311 311 310 311 312 312 312 312 312 313 313 314 314 315 317 317 316 315 315 315 315 317 319 318 318 317 318 319 319 324 329 331 333 337 340 340 340 343 346 346 345 345 341 336 334 334
299 299 298 298 299 300 299 299 297 296 295 295 298 301 302 302 302 303 303 303 303 303 304 305 306 306 306 307 307 307 307 307 306 306 306 307 307 308 309 310 311 311 311 312 311 311 312 312 313 313 313 314 314 315 315 315 317 317 317 315 314 315 316 318 319 317 318 317 317 319 320 320 325 330 331 335 337 338 339 343 345 345 344 344 340 335 333 334
299 299 299 298 298 299 299 298 297 297 297 297 298 300 302 301 301 302 303 303 303 303 303 304 305 306 306 306 307 307 308 307 306 306 307 307 307 308 309 310 311 311 311 312 311 311 312 312 313 314 314 314 314 315 315 315 317 317 317 315 313 315 317 317 318 318 317 317 317 319 320 320 322 330 331 333 337 338 338 342 343 344 344 343 339 335 333 334
300 299 299 298 298 298 298 298 297 297 298 299 299 300 301 301 301 302 303 302 302 303 303 303 304 305 306 306 307 307 308 308 307 307 307 308 308 309 310 310 310 312 311 311 311 311 311 312 313 315 314 314 314 314 315 316 317 318 317 314 313 315 316 315 316 318 317 317 318 319 319 320 322 330 334 335 337 338 337 339 341 342 344 343 339 335 333 334
299 299 299 299 298 298 298 297 297 296 298 299 299 300 301 301 301 302 303 302 301 302 303 303 304 305 305 306 307 307 308 308 307 307 307 308 309 309 310 310 310 312 312 311 312 311 312 313 314 314 314 313 314 314 315 315 316 317 317 315 314 316 316 315 316 317 317 317 318 319 317 319 323 328 335 336 338 338 337 339 342 343 344 343 340 337 336 336
298 298 299 299 298 298 297 297 297 298 299 300 300 301 301 301 302 302 302 302 301 302 302 303 304 305 305 305 306 307 307 307 307 307 307 308 309 309 310 311 311 311 312 311 311 312 312 313 314 314 313 314 313 314 314 314 315 315 317 316 316 317 317 317 318 316 315 314 316 318 314 316 322 327 334 336 337 341 342 342 344 344 343 342 342 340 339 338
298 297 298 298 297 297 297 298 299 300 301 301 301 301 300 301 302 302 302 301 300 301 302 303 304 305 305 305 306 307 307 307 307 307 307 308 309 310 310 310 311 312 312 312 312 312 313 313 313 313 313 313 313 313 314 315 315 313 315 317 317 318 317 316 317 314 313 312 316 319 315 315 322 327 333 335 336 341 342 342 343 344 343 342 343 342 341 339
299 296 295 296 297 297 298 299 299 300 300 300 301 301 301 301 301 301 301 300 301 302 302 303 304 305 306 306 306 306 306 308 307 307 307 307 308 310 310 311 311 312 313 313 312 313 314 313 312 313 313 313 312 312 314 315 314 313 316 317 316 318 317 317 316 314 314 315 316 319 316 315 319 326 332 332 333 336 338 339 341 342 342 341 342 342 342 340
300 296 295 296 297 297 298 299 299 300 300 300 301 301 301 301 301 301 300 300 303 303 302 303 304 304 306 306 306 306 307 308 307 306 307 307 309 309 310 311 311 312 313 313 312 313 314 313 312 313 313 312 312 313 314 314 313 315 317 317 316 317 317 317 316 314 316 315 313 316 316 314 315 323 329 330 330 330 333 337 338 339 339 338 340 341 341 341
300 296 294 296 297 297 297 298 300 301 300 300 300 300 300 301 301 301 300 301 304 303 304 304 304 305 306 306 306 307 308 308 307 307 307 307 309 309 310 312 311 312 313 313 313 314 314 314 313 313 312 312 313 314 314 313 313 315 317 316 316 317 317 317 316 315 315 315 313 314 315 314 313 318 325 327 328 327 330 333 334 337 337 336 338 339 340 341
300 297 294 295 297 298 298 299 300 300 300 300 300 300 300 300 301 300 300 303 304 305 305 304 304 305 306 306 306 307 307 307 308 307 307 308 309 310 310 312 312 312 313 314 314 314 314 315 314 314 313 313 313 314 314 314 314 315 316 316 316 316 316 316 316 314 313 313 314 314 315 314 313 316 322 326 327 328 328 329 331 336 338 337 336 337 339 340
300 297 294 295 298 299 300 301 301 301 301 300 300 300 300 300 301 300 302 304 304 306 306 305 305 305 306 306 306 307 306 307 308 307 306 308 309 310 311 312 312 312 314 314 314 314 315 314 315 314 314 314 313 313 314 314 314 315 315 315 315 314 314 314 314 314 313 313 314 315 316 315 312 314 321 326 327 327 327 329 330 331 334 335 334 337 339 339
300 298 294 295 297 298 299 301 301 300 300 300 300 300 300 301 301 301 303 304 305 305 305 305 305 304 305 306 306 306 305 307 308 307 306 307 308 309 310 311 312 312 313 313 313 314 314 314 314 314 314 314 313 312 313 313 313 314 314 314 313 312 313 313 313 313 313 313 314 316 315 314 313 315 321 325 326 327 327 329 328 328 332 333 333 336 338 339
300 298 297 297 296 297 299 300 300 300 300 300 300 301 301 301 302 302 302 305 305 304 305 306 305 305 305 305 306 306 305 307 308 307 307 307 308 309 310 312 312 312 313 313 313 313 314 314 313 313 313 314 314 312 312 312 312 313 313 312 312 312 314 315 314 313 313 313 314 316 315 313 313 317 321 324 326 327 327 328 328 328 331 331 332 335 337 338
300 299 299 299 297 298 299 299 300 300 300 301 301 301 302 301 303 304 304 305 304 304 305 305 305 305 305 306 306 306 306 307 307 308 308 307 308 309 310 312 312 313 315 315 314 313 314 315 314 313 313 313 314 313 313 313 312 313 314 314 313 312 314 315 314 313 314 314 314 315 315 313 313 317 321 323 325 326 325 326 326 328 331 331 332 335 336 336
300 300 300 301 299 299 299 299 300 300 300 301 301 301 302 302 304 305 305 304 304 304 304 304 306 306 305 306 306 306 307 308 307 308 308 308 309 309 309 311 312 313 315 315 314 313 313 314 314 314 314 313 313 314 315 314 312 313 314 313 312 313 315 314 314 315 314 314 314 314 314 314 318 322 323 323 324 326 326 324 326 331 332 330 332 336 337 336
301 301 302 302 301 301 300 300 301 301 301 302 302 302 303 303 304 304 304 304 303 304 304 305 307 306 305 306 306 306 307 308 308 308 309 309 309 310 309 311 312 313 314 315 314 313 313 314 314 314 314 314 314 315 315 314 312 313 313 312 313 316 317 313 313 316 316 314 314 314 314 315 319 323 323 323 324 325 327 326 329 333 332 330 333 337 337 337
301 302 302 302 302 302 301 300 301 301 302 302 302 303 304 304 304 304 304 304 303 304 304 305 308 306 306 306 306 306 307 308 309 308 309 309 310 310 310 311 313 313 314 315 314 314 314 314 314 314 313 314 315 315 315 314 314 313 311 313 314 315 316 314 313 315 315 314 314 314 314 314 315 318 322 323 323 324 325 325 329 334 334 333 335 336 335 337
302 302 303 303 302 302 302 301 301 301 302 302 302 304 304 304 305 305 304 304 303 304 304 305 308 307 306 306 305 306 307 308 308 309 310 309 310 311 310 311 313 313 314 315 314 315 315 313 313 313 313 314 314 314 314 314 315 314 313 315 315 313 313 313 314 315 315 314 314 314 315 315 313 316 321 323 322 324 325 323 325 332 335 336 336 335 335 337
302 303 303 303 302 302 302 302 301 302 302 303 303 304 305 304 306 307 305 304 304 304 304 306 307 308 307 307 306 306 307 309 309 309 310 310 311 311 310 312 312 312 314 315 314 315 315 314 313 313 313 313 313 312 312 313 314 315 315 315 314 314 313 313 314 315 314 314 315 314 314 315 315 318 321 323 324 324 324 324 324 328 334 337 338 337 337 338
303 303 304 303 302 302 302 302 302 303 303 303 304 305 305 304 305 307 305 304 304 304 304 305 307 309 309 307 306 307 308 309 309 310 311 310 311 311 311 312 311 312 314 314 314 315 315 315 313 312 313 313 312 312 312 313 313 313 313 312 313 314 314 315 315 314 314 314 313 314 314 314 318 321 322 324 325 324 324 325 325 327 333 337 338 338 338 339
303 304 304 303 302 302 302 302 303 303 303 304 304 304 304 304 304 305 305 305 304 304 304 305 307 309 309 308 306 307 308 309 309 311 311 310 311 311 311 312 312 312 313 313 315 314 315 315 313 312 312 311 312 313 313 314 314 313 313 313 313 314 314 314 314 313 314 313 313 314 313 314 319 321 322 325 326 324 325 326 325 329 334 336 338 339 340 340
303 304 304 303 303 302 302 303 304 304 303 304 304 304 304 304 304 304 305 305 304 304 305 306 307 309 309 309 307 308 309 309 309 311 311 311 312 311 311 313 313 313 313 313 314 315 316 315 314 312 312 312 313 313 313 314 315 314 314 315 315 315 313 312 312 313 313 312 313 313 312 316 326 326 322 325 328 326 326 326 329 332 333 335 338 340 340 340
303 303 304 303 302 302 303 304 304 304 303 304 304 304 305 305 304 304 304 304 305 305 307 307 308 309 310 309 307 308 309 310 310 311 311 311 312 312 312 313 313 313 314 314 314 315 315 315 314 312 312 312 313 314 314 314 314 313 313 315 315 315 315 314 314 315 313 312 313 313 312 319 331 333 328 327 329 330 330 327 329 333 334 335 338 339 339 339
303 302 303 303 302 302 303 304 303 303 304 304 305 305 305 305 305 305 304 305 306 306 307 309 310 309 309 309 308 309 309 310 311 311 311 311 312 313 313 312 313 313 313 314 315 314 314 315 314 312 312 313 313 313 313 312 313 313 313 314 315 314 315 316 316 315 314 312 313 313 313 319 330 335 333 330 327 330 331 328 330 334 336 336 337 337 338 338
304 303 303 303 303 302 303 304 304 304 305 305 305 305 305 306 306 306 306 306 306 307 308 310 310 309 309 309 309 309 310 311 311 311 311 311 312 313 313 312 313 313 314 315 315 314 314 315 314 312 312 313 313 313 312 312 313 314 314 313 314 315 315 315 314 314 313 314 314 313 313 322 332 334 331 329 327 329 332 332 332 336 337 337 336 336 337 338
304 304 304 304 304 303 304 304 304 305 305 305 305 306 305 306 306 306 306 307 307 308 309 310 311 310 309 309 309 309 310 310 311 311 311 311 312 312 312 313 313 313 314 314 314 314 314 315 316 314 313 313 313 313 314 313 313 313 313 313 313 314 316 316 314 312 313 314 313 313 316 323 329 331 329 329 329 330 333 334 334 334 336 337 337 337 337 337
304 304 304 304 304 304 304 304 304 304 304 304 305 305 305 305 306 307 307 308 309 310 310 310 311 310 309 310 310 310 310 310 311 311 311 311 311 311 312 313 312 314 314 313 314 314 313 314 316 316 314 313 314 315 315 314 313 313 313 313 313 314 315 316 314 314 315 314 313 315 318 320 323 327 328 328 329 331 332 335 335 334 335 337 337 336 336 335
304 304 303 303 304 304 305 305 304 304 304 304 304 304 305 305 305 308 309 309 309 310 311 311 311 310 309 310 311 311 310 311 311 312 312 311 311 311 311 312 312 313 314 313 313 314 314 314 315 316 316 315 316 316 315 314 314 314 314 314 314 314 315 316 315 316 317 315 314 316 318 318 320 325 326 326 329 331 333 335 337 336 336 337 337 336 336 334
304 304 303 303 303 303 304 304 304 304 304 304 304 304 304 305 306 309 310 310 310 310 311 311 311 310 309 310 311 311 311 312 312 312 313 312 311 312 311 311 312 313 312 313 314 315 314 314 315 316 316 317 318 316 315 315 314 314 314 315 315 315 315 316 316 317 318 316 316 318 318 318 320 323 324 326 328 329 332 336 337 336 336 336 336 336 336 335
303 302 302 302 302 303 304 304 303 304 304 304 305 305 305 305 307 310 311 311 312 312 312 312 311 310 310 310 311 312 312 312 313 314 314 313 312 312 312 311 312 312 312 313 315 315 314 314 315 316 316 317 318 317 316 315 314 314 314 314 315 316 315 316 317 318 317 317 318 319 319 319 320 325 327 328 329 327 330 335 337 336 335 335 335 335 335 334
302 302 302 301 302 304 306 307 307 308 307 306 306 306 306 306 308 311 312 312 313 314 313 314 313 314 313 311 313 316 316 313 313 314 313 313 312 312 313 312 312 312 312 313 315 315 315 315 315 316 316 316 318 318 317 316 315 315 315 315 316 316 316 316 317 317 317 318 318 318 319 319 322 328 331 332 332 330 331 335 336 335 334 334 334 334 334 333
301 301 302 301 303 305 308 309 310 310 310 310 310 309 309 310 311 312 312 313 314 315 315 315 315 314 313 311 315 318 318 317 318 317 314 313 313 313 313 312 313 312 312 313 315 315 315 315 314 314 314 315 317 318 317 317 316 314 315 316 316 316 317 317 317 317 318 319 318 317 317 319 324 328 330 331 331 332 333 334 334 334 333 333 334 333 332 332
Wind_Speed
18 18 17 17 18 18 17 17 16 16 17 17 17 17 16 16 16 17 18 18 17 14 14 15 15 17 17 16 14 13 13 13 11 11 16 19 16 18 17 11 12 16 15 11 9 9 11 13 14 14 14 15 16 16 16 16 15 12 9 9 10 10 11 11 12 10 9 6 6 6 6 5 7 5 5 8 10 13 13 12 11 12 9 4 10 25 32 30
20 19 19 19 19 20 20 20 19 18 18 18 18 18 18 17 18 18 18 18 18 16 15 15 15 17 17 15 13 13 12 10 12 15 19 21 18 17 18 17 14 16 18 15 11 12 13 14 15 15 16 16 15 17 16 16 16 12 7 9 10 10 12 13 13 7 6 7 3 6 5 6 7 3 3 6 10 14 14 13 15 15 11 18 19 23 26 28
21 22 22 22 22 22 23 23 22 21 20 20 19 18 18 18 19 19 19 18 18 19 18 16 15 17 16 14 12 10 9 11 16 16 18 21 20 18 17 18 18 17 17 16 14 13 13 13 14 16 17 16 16 17 16 15 15 14 11 9 10 12 14 10 9 6 4 7 3 5 5 6 7 5 5 6 9 12 13 13 15 17 16 20 21 22 23 25
17 19 21 22 22 23 23 24 24 23 23 22 20 19 18 18 18 19 19 18 18 18 19 18 17 17 15 13 10 7 10 16 14 11 16 18 17 17 17 17 20 21 18 16 14 14 14 14 14 16 17 15 16 17 16 15 13 13 13 10 10 13 13 8 7 10 8 6 8 8 5 7 9 6 6 8 9 8 11 15 15 17 19 22 23 24 24 25
12 13 14 16 17 19 20 21 22 23 24 24 23 21 20 19 18 19 19 19 20 18 18 19 20 18 15 11 7 6 9 10 3 11 16 16 13 15 17 17 19 22 21 17 14 14 14 16 15 16 17 14 15 15 14 18 15 11 13 15 16 12 9 7 7 9 9 8 9 9 9 9 6 5 9 9 9 7 10 15 17 18 21 23 24 23 25 27
12 12 12 12 14 15 16 17 18 19 21 23 24 24 23 21 19 18 18 19 20 19 17 18 20 19 16 11 5 4 8 6 5 5 12 10 13 14 15 17 18 21 21 18 16 16 15 17 16 16 17 13 14 14 13 20 18 11 12 16 19 16 10 8 7 6 8 10 10 10 11 11 7 8 11 11 12 10 7 13 18 18 21 23 24 24 26 28
15 14 14 14 14 13 14 15 16 17 17 19 21 23 24 22 20 19 18 18 20 21 18 18 19 19 17 12 7 7 15 15 5 9 10 6 11 12 12 13 16 19 21 21 20 19 18 19 20 18 15 12 14 15 15 18 19 13 11 13 17 19 15 10 7 6 8 10 12 12 11 11 10 10 10 10 13 12 6 7 14 16 21 24 24 26 27 28
17 17 17 17 17 16 15 15 15 16 17 17 18 19 22 23 22 20 19 18 19 20 19 18 17 18 18 12 10 11 18 19 11 12 11 6 7 9 9 8 12 15 19 23 23 21 20 21 22 19 14 12 14 15 15 15 17 16 14 13 14 17 17 13 12 10 10 12 12 12 13 13 13 12 10 9 11 12 7 6 12 15 20 23 24 26 26 26
20 20 20 19 19 19 18 17 16 16 16 17 16 17 19 21 22 20 20 18 17 19 18 17 15 16 17 11 10 12 14 13 8 9 12 9 8 10 9 5 10 14 18 23 24 23 21 21 22 20 15 14 15 15 16 14 12 14 17 18 13 12 14 14 15 14 13 13 12 13 14 15 15 13 11 13 13 11 12 10 12 16 20 22 22 22 24 26
21 22 22 22 21 21 20 19 19 18 17 17 16 17 17 18 20 20 20 19 17 18 17 17 15 14 14 10 11 10 7 8 7 5 10 14 14 12 8 5 9 13 18 22 24 26 24 20 20 21 17 15 15 14 16 15 11 12 16 20 18 14 13 14 15 16 15 14 14 14 13 15 17 12 9 14 14 11 14 15 16 18 20 21 20 21 23 25
23 23 23 23 22 22 22 21 20 19 18 18 17 17 17 17 18 20 20 19 18 17 17 18 16 14 12 12 15 12 5 3 4 5 8 12 15 14 10 8 9 11 17 21 24 26 25 22 18 18 16 12 13 13 15 16 14 11 10 16 20 16 13 15 14 15 14 12 16 15 13 16 15 11 10 10 13 13 15 18 18 19 20 20 21 22 23 25
23 24 24 23 23 22 23 23 21 20 20 19 18 17 17 16 16 18 20 19 18 16 16 18 17 13 13 18 24 21 13 6 7 11 12 12 13 14 14 13 11 11 14 19 23 25 25 23 20 18 14 10 12 11 12 18 19 15 11 11 16 16 14 17 16 15 14 11 15 15 13 15 13 15 14 11 14 15 16 18 18 18 19 20 21 22 23 24
21 21 22 22 22 21 21 22 21 21 20 20 19 18 17 16 16 16 18 19 18 16 16 18 17 13 16 23 27 27 24 16 14 16 17 14 13 14 16 16 14 12 14 17 20 22 24 23 20 21 17 12 12 7 6 15 19 15 12 9 10 13 13 18 18 16 16 13 15 15 10 11 15 17 11 10 13 17 17 16 17 18 18 19 21 22 23 23
20 20 20 20 20 20 20 20 21 21 21 21 20 19 18 17 17 16 17 18 18 16 15 17 14 13 20 26 26 27 27 23 21 22 19 15 14 14 14 15 15 14 14 16 18 18 22 22 20 20 19 15 13 7 5 12 15 12 11 9 9 9 10 17 20 17 16 14 17 15 8 11 15 13 16 13 8 13 16 15 16 17 18 20 21 21 22 24
20 20 19 19 19 19 19 20 20 20 21 22 21 21 20 19 18 16 16 17 18 16 15 16 13 13 20 26 24 21 18 20 25 24 20 16 15 13 13 15 15 14 14 16 16 16 19 21 18 17 17 18 16 9 7 9 10 10 11 9 10 9 10 15 19 19 16 14 19 16 9 10 7 14 24 18 10 10 13 16 17 17 18 19 20 20 21 23
20 21 20 20 19 20 20 20 20 21 20 21 22 21 21 20 18 17 15 17 18 16 15 15 13 15 17 17 17 15 14 18 20 17 17 18 16 14 13 14 15 14 14 16 16 13 16 19 18 18 16 16 13 8 8 9 8 10 10 9 11 11 11 11 16 19 18 15 17 17 13 7 7 13 19 20 17 15 14 16 17 17 18 19 19 19 20 22
21 21 21 21 20 20 20 20 20 21 20 20 21 21 21 20 18 17 15 16 17 16 16 14 11 14 17 15 14 12 14 16 13 11 14 17 17 16 13 13 16 15 14 17 17 14 16 18 17 16 15 12 10 9 10 10 10 9 10 10 11 13 13 9 13 16 19 17 16 18 16 4 11 12 13 15 16 17 15 14 16 18 19 21 19 19 21 22
23 22 22 21 21 21 20 20 20 20 20 20 21 21 21 20 19 18 16 15 16 14 16 16 10 8 12 19 22 16 9 8 9 10 12 13 16 17 15 14 15 16 16 18 20 18 17 18 15 11 12 12 11 12 11 11 12 10 11 10 10 13 15 11 11 15 20 19 15 18 18 7 12 10 10 13 14 15 14 13 17 18 18 18 17 16 16 19
24 24 23 21 21 21 20 21 21 19 19 19 20 20 19 19 19 19 18 15 15 12 9 14 18 9 4 8 18 17 9 6 8 11 13 14 15 17 17 16 16 20 19 15 18 22 18 14 14 11 12 14 14 15 14 13 13 13 13 12 11 10 13 13 10 14 19 17 14 16 17 11 12 11 10 11 12 13 15 15 16 17 17 16 15 11 6 4
24 24 24 22 20 20 20 22 22 19 18 16 17 16 14 15 13 13 17 20 23 21 14 16 25 24 19 14 9 9 7 9 12 14 17 16 17 19 19 19 19 20 18 13 15 21 19 12 13 14 14 16 17 18 18 17 14 14 13 13 14 10 11 14 8 13 18 14 14 16 17 16 13 13 12 12 14 14 15 18 17 17 17 14 16 17 20 14
24 24 23 22 20 20 21 22 21 20 17 16 17 15 15 15 10 6 8 16 26 30 27 23 23 25 26 22 14 7 6 9 12 15 16 18 20 20 20 21 18 15 16 17 16 19 18 13 14 17 16 17 19 18 20 19 14 12 12 12 14 10 11 13 8 11 15 11 13 16 16 18 14 13 15 16 16 14 15 16 15 17 16 14 17 19 19 20
24 23 22 21 20 20 22 22 21 19 16 16 19 20 21 19 12 10 8 10 18 25 30 29 26 25 23 23 21 15 13 12 12 14 15 20 24 21 20 21 16 13 17 18 15 15 15 13 17 19 17 17 18 18 19 19 13 9 10 10 11 10 12 13 11 11 13 9 11 16 15 15 12 13 13 14 13 13 15 14 14 16 16 14 16 18 20 21
25 23 21 20 20 21 21 21 20 18 16 17 21 23 22 18 13 11 10 12 14 18 25 29 31 30 28 28 24 20 20 16 14 16 18 21 25 25 21 19 17 16 18 19 16 14 12 14 18 18 18 18 17 19 19 16 11 9 10 9 10 12 12 9 10 11 13 10 12 15 14 11 10 13 13 15 16 15 16 15 16 17 15 14 14 15 19 21
27 23 20 20 20 20 19 19 19 18 16 17 21 20 18 16 13 10 11 12 13 14 22 27 29 30 32 29 23 21 23 20 16 17 21 23 25 25 21 19 19 16 18 22 21 17 13 14 19 19 18 20 17 18 19 13 9 11 12 10 10 13 11 7 9 12 12 14 15 13 11 9 10 13 12 15 20 19 19 19 18 16 14 14 15 15 16 18
27 21 18 19 19 18 18 18 17 16 15 16 17 16 16 16 12 8 8 9 10 13 19 23 24 28 32 29 24 23 22 22 22 18 21 27 26 22 18 20 18 15 20 25 22 16 14 17 22 21 19 20 17 17 19 14 9 11 13 12 13 13 12 9 11 13 10 12 14 12 9 8 11 12 9 10 14 16 17 17 16 16 15 15 17 18 15 15
24 18 17 17 16 14 14 13 12 11 12 14 13 13 14 14 11 8 6 5 7 9 15 20 18 19 26 27 27 24 17 19 25 22 20 26 28 22 16 16 14 15 20 21 15 10 11 18 21 21 20 21 18 15 19 17 10 9 12 14 15 13 13 12 12 12 8 9 13 13 10 7 9 12 12 11 10 11 12 11 12 13 14 15 17 19 17 17
23 19 17 15 13 10 10 11 9 9 9 8 6 6 8 9 10 7 4 5 7 9 14 19 16 13 22 28 27 22 12 12 22 26 23 23 28 25 17 14 13 14 16 14 11 10 13 20 22 22 21 19 16 14 17 18 12 7 12 16 13 10 12 13 12 11 8 8 12 15 14 9 7 12 14 14 9 9 10 10 10 9 11 12 15 18 18 19
23 19 16 13 10 8 9 11 10 9 7 3 2 2 3 5 7 5 3 4 2 6 10 18 18 13 19 26 30 26 16 11 16 23 26 23 26 25 17 16 17 16 18 14 11 12 15 20 22 22 19 15 14 14 16 19 14 8 13 17 11 6 9 11 10 10 9 9 10 14 16 11 7 11 13 15 13 13 13 13 12 12 12 12 14 17 19 20
22 18 15 11 8 8 8 9 10 8 3 3 3 2 2 5 7 5 4 4 2 4 5 15 18 14 17 22 28 30 23 14 14 21 25 23 25 22 15 16 19 18 20 17 12 13 15 18 20 19 15 13 14 15 16 18 15 8 10 16 12 8 9 9 8 9 10 10 10 13 15 10 7 9 12 15 16 16 14 13 14 17 19 19 17 18 18 20
22 18 13 9 7 8 7 6 8 6 2 2 2 3 1 5 5 4 6 4 3 1 1 12 15 15 20 19 20 25 23 17 15 25 25 23 24 21 15 17 18 16 17 17 16 14 14 17 18 15 15 14 15 16 15 18 17 7 7 12 12 10 9 8 7 8 9 9 11 15 16 14 10 8 11 12 13 16 15 13 13 17 20 19 18 18 17 19
21 17 12 8 6 8 8 5 4 4 3 2 2 3 0 4 3 5 5 1 2 2 3 10 15 15 21 19 16 21 21 18 17 25 21 19 20 17 14 15 15 13 13 15 16 14 14 15 13 15 19 18 16 16 15 18 19 9 7 11 10 9 9 7 7 8 9 9 11 16 18 16 12 7 10 12 14 16 15 16 16 16 17 16 15 16 16 18
20 15 10 7 5 7 8 6 5 4 2 1 1 3 1 4 5 7 3 4 2 2 5 4 12 16 21 20 17 19 19 16 18 22 18 16 16 14 14 13 13 14 14 14 15 15 15 15 14 16 21 20 15 14 13 15 17 11 9 11 10 9 8 8 9 9 9 8 10 16 18 14 11 9 10 13 14 15 14 17 21 22 21 20 19 17 16 19
18 14 9 6 5 6 8 7 5 4 2 2 2 2 3 5 4 6 5 4 2 2 5 8 9 17 21 18 17 19 19 16 17 20 19 19 15 15 18 17 17 16 12 15 16 14 12 14 18 17 16 19 17 13 11 12 15 12 11 11 10 9 9 9 9 8 9 8 10 16 17 12 9 10 11 12 13 15 16 17 22 28 29 26 25 22 19 19
17 12 8 7 5 6 8 7 4 4 2 2 2 3 5 6 4 3 1 3 3 3 6 10 8 14 20 17 16 19 17 14 19 19 18 19 15 14 17 18 21 17 11 14 14 14 13 11 17 17 13 18 19 14 12 12 14 13 11 11 10 9 8 8 8 8 9 9 10 12 13 11 8 6 8 12 12 14 19 20 20 26 30 26 25 26 23 21
17 12 8 7 6 7 8 6 6 6 4 3 4 4 6 6 5 3 3 3 4 6 9 12 8 11 17 16 17 22 17 12 20 20 16 17 14 15 16 16 22 20 13 14 11 13 15 10 15 17 13 18 18 14 14 14 13 11 11 10 10 10 8 7 7 6 5 8 10 8 8 9 6 3 3 9 11 9 12 14 14 22 27 24 23 26 25 23
15 9 7 7 6 6 7 7 6 6 6 6 5 5 6 4 3 2 2 1 4 6 12 11 7 10 13 13 16 23 19 12 20 18 13 18 16 18 18 15 21 22 16 13 10 12 13 10 17 18 14 19 19 14 15 13 10 9 11 11 9 11 10 8 8 3 3 8 9 7 7 8 7 4 3 7 10 10 9 9 11 22 25 23 23 25 24 23
11 7 6 6 5 4 6 7 7 7 8 7 6 5 5 3 2 1 1 1 3 3 8 6 6 10 12 12 14 23 19 13 19 16 13 17 16 18 20 17 22 24 19 15 10 11 11 9 17 19 15 19 21 17 14 14 12 8 10 11 9 11 11 8 8 6 6 9 8 10 11 10 10 8 9 12 13 13 13 13 13 19 19 19 21 24 24 24
8 6 6 6 5 4 7 9 9 9 8 6 8 9 6 2 2 2 1 2 3 4 6 5 4 10 13 12 15 22 18 13 18 16 13 15 14 18 21 17 21 23 22 19 12 11 13 8 13 19 16 16 19 17 12 14 17 12 9 11 9 9 10 8 8 8 10 9 8 12 14 11 11 8 10 15 16 14 14 15 15 17 18 19 23 26 26 25
5 4 6 6 5 4 7 8 9 10 7 6 8 7 4 3 1 2 2 3 3 4 6 6 4 7 10 12 17 20 17 15 18 15 13 12 12 19 21 16 18 22 23 20 12 10 12 8 9 17 17 15 15 13 10 12 16 14 10 12 10 7 7 8 8 7 9 9 8 12 13 9 9 9 12 15 16 16 16 15 14 16 22 24 24 26 26 26
6 5 4 4 5 4 4 5 8 8 6 6 7 5 4 5 3 1 3 4 4 4 5 6 6 6 7 13 19 17 14 16 17 14 12 13 13 18 22 19 18 22 23 21 14 11 11 8 8 13 16 15 12 12 13 13 13 11 9 12 11 7 7 8 8 7 8 8 7 9 10 8 7 8 12 15 15 15 15 15 13 15 22 25 24 26 27 27
8 5 1 3 5 4 3 4 7 7 6 6 6 6 6 6 5 6 5 5 6 7 7 9 9 7 8 12 18 15 12 14 16 13 10 13 13 12 19 21 19 21 21 17 14 11 8 8 9 11 13 13 12 15 16 15 15 12 8 10 10 9 9 9 9 9 8 8 8 7 8 7 6 7 10 12 13 14 16 15 13 16 22 23 23 25 27 28
8 4 1 2 4 5 5 6 6 7 6 6 6 6 7 6 6 8 7 5 7 9 9 11 10 9 9 11 17 16 11 12 15 12 10 14 13 11 20 25 23 24 20 13 14 13 8 7 10 10 11 12 14 17 17 17 17 14 11 11 10 10 10 8 8 9 8 9 8 8 8 4 1 2 6 6 6 9 14 14 13 17 21 21 23 25 27 28
7 4 2 3 5 6 7 6 6 7 6 6 8 8 8 8 7 7 7 6 7 7 8 8 8 8 9 11 17 16 12 12 14 12 12 15 13 14 23 27 25 24 18 12 14 14 7 5 9 10 9 10 13 15 16 17 16 13 13 13 10 11 11 8 7 7 7 9 8 6 7 4 2 1 2 4 6 7 11 14 13 15 20 21 22 25 26 26
8 7 6 6 6 7 7 6 6 6 6 8 9 9 9 9 8 8 8 6 6 6 6 6 5 7 9 9 15 13 11 12 13 12 13 12 11 16 25 27 25 21 15 13 13 12 7 7 10 11 10 11 13 14 14 16 14 10 12 14 13 14 15 11 9 6 7 10 11 8 6 4 4 4 2 6 10 10 12 17 18 17 22 23 23 26 26 26
8 7 6 7 7 8 9 9 8 8 9 10 11 11 10 8 6 8 10 9 9 10 7 4 3 6 8 8 13 13 11 11 11 11 12 12 11 15 24 27 26 21 18 16 15 13 9 8 9 11 11 12 12 12 11 12 12 9 13 17 17 17 17 13 9 7 7 10 11 10 5 2 4 6 6 8 11 11 13 17 20 19 21 23 25 27 26 25
7 4 3 5 8 11 14 15 12 9 7 8 9 8 6 5 6 8 9 9 10 11 9 7 5 6 7 8 11 12 12 12 11 10 12 12 9 12 22 26 26 24 18 12 14 13 9 9 11 11 11 11 11 11 10 12 12 11 15 19 19 19 17 13 9 8 8 7 9 11 6 4 5 7 8 9 10 11 12 13 16 18 18 21 26 27 26 26
6 3 2 3 6 9 12 12 10 7 5 5 4 3 3 5 7 5 5 6 7 8 8 7 6 7 9 11 11 11 13 14 13 12 14 13 10 13 22 25 24 20 14 10 13 12 7 9 13 12 13 13 12 13 14 15 16 15 16 18 19 19 17 13 11 10 9 7 7 10 11 7 5 6 7 9 9 9 10 12 15 18 19 22 25 26 25 26
4 3 4 4 4 5 5 7 8 7 7 6 2 1 4 7 8 4 4 4 5 7 6 4 6 9 12 12 10 11 13 13 12 13 14 14 12 14 19 22 21 18 14 12 15 10 5 9 12 12 11 8 9 15 18 17 16 16 16 17 18 19 18 16 13 11 10 8 6 8 12 11 7 7 7 9 9 8 8 12 16 19 19 21 24 25 25 25
6 6 6 6 6 9 12 13 10 8 9 7 4 3 4 6 7 5 3 3 4 5 4 4 8 13 15 12 9 10 12 10 10 12 12 13 14 13 14 16 19 19 16 13 13 9 7 8 11 12 8 4 6 11 15 16 16 16 17 17 16 17 18 16 14 13 12 10 9 7 8 12 9 8 8 10 12 10 9 12 18 20 19 20 21 22 24 25
8 8 9 10 9 14 18 14 8 6 6 5 3 3 3 4 6 4 2 2 3 3 2 4 9 12 13 11 7 6 8 10 10 10 11 12 13 12 11 11 14 18 17 12 10 10 8 7 12 12 7 5 5 5 9 13 15 16 17 17 17 17 17 16 14 14 12 10 11 8 5 9 8 7 9 11 15 16 15 16 19 19 21 24 23 23 26 27
12 10 12 13 9 9 12 9 5 3 2 2 2 3 3 4 6 2 2 2 1 2 1 3 6 7 10 10 7 5 5 6 9 9 12 13 11 11 10 11 13 15 15 11 10 10 7 6 11 10 7 8 7 7 10 12 12 14 16 18 18 16 15 15 13 13 13 11 11 9 5 6 6 11 10 10 14 17 17 19 20 19 22 24 24 27 29 29
15 13 12 11 7 7 8 7 6 6 3 3 2 4 4 4 4 2 2 2 1 2 3 1 3 5 10 12 7 6 8 4 5 5 8 13 15 14 11 12 14 14 12 11 10 10 8 6 8 10 8 8 9 9 9 8 10 12 12 14 18 17 15 15 14 15 15 12 9 8 7 6 6 11 10 10 13 14 15 18 20 20 22 22 24 26 27 27
Wind_Direction
282 285 288 289 291 293 295 296 297 298 297 298 300 304 307 308 312 317 322 323 318 315 309 308 309 307 308 312 318 315 308 298 281 269 260 252 241 238 233 227 224 214 214 201 186 214 210 205 210 204 209 211 214 223 214 207 213 218 224 234 233 236 239 241 245 244 256 242 155 167 188 213 243 223 215 228 227 236 240 219 211 208 186 100 111 145 152 151
280 284 286 286 288 288 289 290 293 295 294 296 296 298 299 300 304 308 313 317 322 323 316 313 310 309 311 318 331 325 312 305 290 276 261 252 242 239 235 227 215 206 210 206 202 214 212 208 205 200 208 213 211 215 214 203 208 219 218 230 233 239 241 240 254 254 252 261 175 158 182 213 242 259 221 227 224 218 225 215 204 203 143 102 122 141 146 152
281 283 284 286 287 287 287 287 289 290 290 292 293 293 294 294 297 303 307 310 319 326 322 317 312 312 312 323 339 331 328 317 295 276 257 252 242 235 234 226 211 204 208 208 210 218 221 217 205 202 211 218 211 209 213 201 202 218 223 234 231 239 247 236 255 268 264 284 261 179 185 219 239 252 234 248 242 213 216 215 197 192 153 124 138 150 156 161
297 292 290 290 290 289 288 286 286 285 285 286 288 289 290 292 291 294 300 302 308 317 321 318 315 314 314 331 340 343 342 313 283 233 236 248 240 230 230 225 212 210 209 202 212 227 228 226 216 207 214 223 214 209 213 203 199 214 219 239 237 232 244 230 227 246 251 265 255 239 228 231 238 244 240 252 250 221 215 212 195 188 167 149 151 157 167 167
322 315 308 304 301 299 297 293 290 285 282 281 282 284 285 288 289 289 291 295 298 305 316 318 318 317 318 333 341 352 331 304 204 190 230 240 230 220 220 222 215 215 213 202 213 229 225 225 223 213 218 227 216 210 214 210 209 221 222 235 245 240 247 242 223 236 244 243 247 248 239 238 243 243 243 248 251 241 217 205 197 188 174 163 160 161 170 170
324 322 318 314 310 308 306 305 301 294 287 281 277 277 279 282 285 287 286 287 291 297 307 314 319 319 320 330 339 336 284 270 101 201 243 231 219 208 208 216 213 214 211 206 215 223 220 219 219 214 218 226 224 217 213 213 212 226 229 226 240 248 252 252 230 216 234 236 237 238 236 244 257 250 243 245 249 258 241 206 196 186 175 167 162 165 171 172
319 317 314 314 311 309 308 309 308 305 299 290 282 275 274 277 280 284 284 283 285 291 298 306 315 317 320 328 320 283 253 258 277 263 265 225 209 199 199 211 212 211 205 207 213 215 216 214 214 216 219 223 227 224 214 216 214 221 238 223 230 241 240 241 231 212 226 238 239 239 243 245 251 248 238 239 240 248 266 194 179 172 168 164 162 167 171 172
313 312 312 311 309 307 305 306 307 308 307 302 294 282 274 272 274 279 282 281 281 284 290 298 310 316 321 331 315 275 246 250 254 258 259 216 205 197 183 204 222 213 202 207 210 211 213 214 215 216 222 224 227 227 216 219 218 217 237 238 228 232 232 230 233 234 234 241 241 239 244 243 242 250 249 249 238 223 213 164 161 161 160 161 163 167 171 174
307 307 307 305 305 304 302 303 305 305 305 305 304 296 282 272 270 273 277 280 277 279 283 291 302 311 320 323 299 278 251 240 225 246 248 228 225 193 167 201 222 206 204 209 210 212 214 215 217 216 226 230 229 230 219 220 222 212 228 242 237 228 231 232 235 238 238 238 238 235 236 238 237 247 253 245 237 206 190 180 169 166 163 164 165 169 174 176
306 304 302 300 299 298 298 298 301 301 301 302 302 302 296 281 270 266 272 277 276 276 276 282 293 306 315 300 271 265 243 217 202 238 250 243 235 204 191 225 209 202 208 210 211 213 214 216 216 219 231 237 237 234 222 221 222 213 222 236 239 232 227 231 233 231 233 232 231 234 232 233 231 230 242 227 209 185 187 185 174 173 171 170 171 174 176 176
304 303 302 300 297 295 293 293 294 295 296 298 297 299 301 294 277 265 268 273 275 274 269 275 288 298 296 271 255 242 205 182 218 272 278 259 242 224 229 233 212 212 213 212 214 213 215 218 216 220 227 238 245 239 227 223 227 231 231 235 235 233 230 229 231 226 229 228 223 231 234 234 229 223 237 206 172 178 190 178 173 179 176 173 173 174 174 173
302 302 301 299 297 294 291 288 288 290 292 293 292 293 296 298 287 269 264 268 273 270 263 270 282 289 282 263 249 236 230 245 255 274 282 268 253 239 233 230 226 225 219 217 217 213 216 218 219 224 221 226 239 236 231 222 226 237 236 239 230 226 233 229 228 224 225 228 216 219 231 231 226 225 221 177 160 180 187 172 173 180 174 173 173 170 171 170
307 306 303 299 296 294 292 287 283 284 286 287 287 289 292 296 294 278 266 264 269 270 261 263 273 278 271 262 254 247 249 255 258 267 270 265 263 252 238 234 233 233 229 223 219 215 215 217 221 227 226 227 229 231 247 218 218 231 224 235 234 221 228 223 223 221 220 225 210 207 224 223 220 221 191 149 171 180 178 173 171 176 171 171 172 170 172 170
315 314 310 305 301 297 295 291 284 280 280 282 282 284 286 290 294 286 270 261 263 268 259 256 266 268 264 264 265 264 262 263 264 259 256 260 261 252 240 233 232 233 230 224 221 217 214 216 222 230 229 231 232 222 236 215 207 224 220 223 236 231 226 211 208 212 214 214 204 205 229 226 213 181 122 114 177 175 171 172 169 174 171 171 175 173 173 172
315 315 312 309 306 302 298 293 287 281 278 279 279 280 282 285 290 290 275 259 258 262 258 255 257 260 266 271 273 276 271 260 257 248 240 248 246 237 228 221 223 225 222 217 216 217 214 211 215 228 223 222 238 232 216 215 200 215 222 218 223 234 236 204 191 202 207 199 197 203 230 229 188 124 124 137 159 151 160 171 172 175 173 174 178 177 175 173
315 312 311 309 306 305 301 294 289 283 279 278 277 277 279 281 284 287 277 257 254 257 253 250 248 249 261 274 274 268 255 243 246 243 233 233 229 225 219 212 211 212 213 207 206 213 210 203 208 222 220 213 229 232 212 214 205 208 217 224 213 218 239 199 175 195 203 196 193 203 231 226 127 118 134 151 159 154 162 172 173 171 174 179 178 178 177 173
316 311 309 307 304 304 303 297 290 283 280 276 275 274 275 278 278 282 278 257 251 247 241 238 244 255 255 268 275 254 238 231 229 227 222 221 218 218 212 203 201 198 201 198 198 204 196 197 205 214 221 215 210 216 216 209 204 203 208 228 217 210 231 199 168 189 200 205 197 201 229 206 125 133 133 151 167 164 165 171 174 175 178 179 176 176 180 179
319 314 308 304 301 299 299 300 294 285 279 274 272 270 269 272 272 275 273 255 242 234 238 233 229 263 252 244 246 240 232 218 210 216 215 211 208 210 208 201 194 187 191 191 194 199 190 194 204 205 213 211 205 209 218 211 205 204 199 217 220 208 222 209 176 185 196 207 202 201 218 176 124 135 139 162 181 171 167 174 179 184 181 174 172 173 185 196
323 320 312 303 298 296 296 299 298 289 277 271 271 271 270 269 266 263 254 238 220 209 224 213 198 214 280 241 228 229 246 239 230 232 219 209 202 203 206 204 194 187 189 186 190 195 188 192 203 208 208 203 205 207 216 221 212 210 201 210 223 206 214 217 188 181 190 202 205 205 212 185 141 147 152 164 188 184 174 182 186 181 175 167 160 136 77 216
323 321 314 304 297 295 295 297 299 292 277 267 265 267 265 255 250 247 231 220 217 215 222 203 192 213 254 274 228 205 247 250 241 235 220 209 198 196 200 200 194 191 194 189 185 189 189 196 203 208 208 201 205 208 216 227 224 218 204 207 224 212 209 215 184 171 185 198 209 210 214 202 169 158 162 167 191 197 181 187 189 175 172 165 148 117 68 62
322 321 315 306 299 294 295 296 296 292 279 261 252 248 243 236 243 275 234 223 224 221 227 222 204 214 239 256 246 228 276 264 238 228 214 200 192 191 194 195 192 191 199 194 182 185 192 206 207 205 207 202 204 209 215 226 237 234 210 205 218 216 211 201 158 165 190 205 211 211 219 214 189 161 165 172 181 195 193 188 185 177 173 164 151 140 108 91
324 322 316 307 299 294 293 294 294 291 280 259 245 239 238 241 261 302 294 261 245 229 228 232 229 229 235 251 256 253 262 258 241 227 204 191 191 191 187 190 197 190 192 193 182 185 198 211 207 201 207 207 203 208 214 220 229 236 220 212 210 213 213 186 153 173 196 210 210 205 217 221 190 152 160 177 174 183 193 182 179 182 171 162 158 151 140 128
326 321 314 306 298 294 293 294 291 286 274 253 243 240 242 247 259 279 273 271 271 242 228 230 234 235 238 247 252 247 242 240 242 227 202 193 195 194 188 188 198 192 189 195 189 189 199 206 204 199 205 208 201 203 212 215 215 225 226 214 208 213 212 177 155 183 197 212 222 207 208 222 190 157 162 178 174 178 191 182 179 182 168 159 158 153 152 146
327 318 310 305 299 296 295 293 288 282 270 252 247 243 242 244 245 257 259 262 272 248 229 228 231 232 233 238 239 237 235 230 236 226 202 199 197 195 196 192 196 197 194 197 195 198 202 194 197 199 201 206 200 197 206 211 204 219 228 220 216 209 199 184 177 187 197 212 230 222 205 213 198 182 177 175 171 170 176 176 172 172 163 153 153 158 161 155
330 320 309 305 303 300 297 295 289 280 264 250 249 242 238 240 234 244 256 262 266 242 228 224 226 231 230 231 230 228 232 227 230 227 202 199 197 192 197 195 198 202 195 197 197 202 204 190 192 198 198 201 201 197 203 208 200 211 225 229 233 211 188 196 190 181 192 205 218 227 214 199 192 194 188 178 175 160 159 168 167 164 160 156 159 164 165 163
334 328 316 308 304 301 297 293 290 282 261 248 249 239 236 234 226 229 231 256 268 233 213 206 209 222 218 219 219 216 231 230 224 226 209 199 199 196 194 192 202 208 196 195 198 204 203 189 191 197 195 196 202 202 198 201 209 209 208 221 243 231 194 193 188 183 200 200 198 212 220 200 185 198 192 183 183 159 157 167 165 168 163 164 169 167 168 170
336 334 328 316 305 302 294 284 290 297 276 260 256 238 234 223 214 214 213 255 260 220 203 191 185 194 199 203 201 198 221 217 207 218 212 198 200 203 205 192 195 208 193 189 201 201 197 192 191 195 194 194 201 202 190 195 214 208 186 202 236 244 199 187 189 196 209 201 193 204 223 225 196 206 193 175 182 184 179 173 165 174 169 172 177 169 173 175
338 336 334 324 307 294 286 285 297 300 286 311 358 265 257 223 198 180 205 257 225 169 187 185 178 182 190 192 191 196 215 190 178 202 202 197 199 203 215 200 192 201 192 193 201 184 193 199 190 188 191 193 197 197 187 191 214 216 184 191 209 226 200 188 197 211 209 204 201 199 215 236 214 206 196 175 187 205 197 187 180 178 178 186 190 180 179 177
341 337 337 331 312 297 287 286 292 286 283 2 357 313 268 199 174 165 223 250 151 119 161 172 174 191 194 187 189 198 217 215 179 180 186 196 202 205 221 204 194 201 193 198 203 181 194 198 181 180 193 194 195 199 188 189 211 219 183 185 188 197 207 204 211 223 214 212 221 203 202 229 225 196 200 190 190 199 197 196 191 179 181 189 191 189 183 174
341 337 337 333 313 310 305 290 292 300 346 7 329 335 269 180 169 194 226 228 166 115 156 162 168 195 193 184 188 195 214 229 184 164 174 192 200 209 224 205 198 203 190 195 207 195 186 181 174 187 205 199 196 199 190 191 205 196 161 185 188 193 209 215 222 233 225 211 222 219 204 217 234 197 192 204 200 196 190 190 194 183 180 183 184 190 184 169
339 336 334 327 302 305 305 300 327 345 353 319 324 354 183 178 206 212 208 234 177 342 325 176 180 198 189 184 190 189 209 227 177 159 173 187 190 201 211 200 195 198 186 192 206 190 170 175 183 198 205 200 194 195 187 193 204 187 167 196 191 191 205 208 214 228 236 215 208 223 212 206 229 217 183 198 204 200 190 181 188 190 183 181 183 189 185 169
335 333 332 323 292 290 289 296 331 323 289 243 290 357 153 188 232 225 243 338 273 305 330 219 201 196 185 188 191 184 202 215 174 164 176 181 183 191 196 189 181 188 186 186 193 180 173 189 194 195 202 201 193 190 182 190 203 194 185 200 192 186 193 199 206 210 228 227 205 218 219 206 224 236 202 193 197 202 202 188 185 185 180 180 186 187 183 172
329 327 324 315 286 268 268 278 299 292 277 184 202 299 233 219 235 235 264 333 350 267 317 310 243 195 181 189 189 183 200 201 174 172 178 180 184 189 198 195 186 191 186 181 187 181 178 192 192 191 197 199 198 192 180 186 199 196 193 200 195 187 189 196 204 202 212 230 215 214 222 215 219 234 214 193 192 203 208 199 186 179 175 178 180 177 180 175
321 315 304 297 285 261 260 265 258 252 254 215 229 254 240 246 268 290 334 23 357 278 287 318 285 198 186 193 184 180 197 190 174 177 176 179 186 187 198 198 191 195 184 180 190 182 177 186 191 193 186 188 201 201 185 184 193 199 203 206 208 201 192 195 204 203 203 212 213 214 223 214 204 233 213 177 180 206 208 206 194 173 169 175 171 165 174 179
312 302 277 270 273 260 254 249 238 237 231 229 247 250 247 253 266 317 28 23 334 321 317 318 283 203 189 193 182 181 198 187 174 181 178 179 187 184 191 194 190 194 186 182 193 185 187 189 183 187 180 182 199 203 190 189 190 195 206 211 217 209 194 196 213 228 227 213 209 213 226 211 189 299 265 156 160 192 202 203 180 150 159 177 170 160 168 176
307 289 257 249 251 259 253 235 227 228 224 232 245 249 254 256 270 327 40 334 310 330 327 311 238 199 186 185 177 182 201 195 175 183 181 181 189 184 189 194 188 193 194 188 189 185 193 185 169 175 182 185 197 201 193 197 189 183 204 212 213 214 209 200 205 246 279 223 205 198 211 211 200 216 213 166 169 181 187 198 163 143 162 182 166 156 165 173
300 275 262 252 235 247 247 233 230 228 227 238 245 250 256 228 221 275 104 239 263 289 321 311 211 197 186 179 172 177 192 190 177 185 180 181 190 183 187 193 188 195 203 195 184 184 192 171 159 172 184 183 192 203 201 206 205 190 198 204 201 216 226 215 200 203 218 219 203 189 196 211 218 202 183 191 198 192 189 201 180 150 162 180 163 159 169 173
298 275 266 255 235 232 233 231 233 227 224 240 250 255 268 240 183 206 219 261 264 268 299 302 217 199 185 174 171 177 184 179 177 185 179 180 188 182 186 191 187 196 204 195 184 189 195 170 161 182 185 172 184 204 204 203 217 219 198 197 202 209 216 215 209 199 203 216 210 196 197 211 225 206 181 193 200 199 195 200 194 164 163 179 170 165 171 168
302 273 247 237 226 218 225 229 227 226 228 246 257 257 272 299 243 174 205 261 290 289 287 299 271 222 204 181 169 174 184 179 177 181 179 184 183 179 186 187 184 196 202 194 183 190 194 171 165 186 182 166 177 201 200 188 210 226 209 202 211 209 208 212 212 202 200 209 212 206 204 211 225 209 187 191 197 202 196 194 199 180 172 180 172 166 169 165
285 264 223 198 203 202 214 226 226 233 238 241 264 294 324 321 311 237 240 259 281 281 278 300 299 272 233 190 168 173 190 180 178 182 179 185 176 173 187 188 179 190 196 191 181 187 193 174 170 180 177 176 182 196 200 186 192 211 209 204 201 191 201 210 210 211 207 205 205 213 216 214 221 212 193 194 200 203 197 192 196 184 176 178 174 168 168 166
287 274 181 171 211 213 218 233 228 236 245 243 266 302 321 320 307 296 284 256 258 262 264 280 282 282 262 201 170 174 186 173 181 185 170 181 177 166 186 186 176 183 191 192 186 187 190 174 176 180 178 188 190 188 198 198 191 195 204 207 197 185 195 204 207 211 215 214 203 210 225 218 214 217 202 196 198 200 197 190 187 181 175 174 173 170 168 167
294 292 65 177 219 221 230 246 242 237 248 272 292 302 311 310 298 300 302 273 264 261 255 264 265 270 262 205 171 175 180 169 183 184 160 171 172 164 178 179 180 186 186 187 184 181 186 178 175 179 180 188 186 183 197 207 198 193 204 211 199 194 204 208 204 201 212 227 217 212 222 213 154 230 207 188 188 190 182 178 181 178 172 169 168 168 169 168
306 312 307 251 235 232 239 258 264 250 260 296 303 301 305 300 287 292 296 282 270 257 247 253 255 265 257 197 169 173 179 173 179 177 163 163 167 177 175 172 181 187 181 184 181 174 189 194 174 173 172 179 183 181 195 210 204 194 207 215 206 199 205 217 219 198 201 222 219 211 215 196 96 33 211 178 176 174 165 172 188 176 163 167 168 166 169 168
313 299 284 273 253 236 243 272 294 286 294 307 306 304 300 291 279 273 271 262 253 255 260 256 244 263 260 199 168 168 175 176 176 172 164 158 170 178 168 171 187 188 180 190 176 161 189 199 176 174 171 175 184 181 188 206 208 197 203 212 213 204 198 213 233 211 200 220 221 218 216 184 147 139 168 196 189 180 169 174 184 173 161 166 168 168 170 167
305 283 264 263 252 237 248 276 298 299 300 305 301 297 294 285 269 261 262 256 250 256 269 277 254 253 248 197 169 164 167 174 172 167 161 157 170 172 165 177 193 186 180 187 170 161 194 205 183 181 181 181 184 183 184 193 198 200 201 204 211 210 199 204 226 220 207 216 222 226 220 138 152 160 170 199 195 178 169 170 170 163 161 165 166 167 166 162
305 292 266 261 247 239 251 269 282 282 290 301 298 297 292 276 273 272 265 254 243 242 255 274 261 237 227 200 176 163 162 170 169 166 163 157 162 169 169 181 191 182 173 167 160 170 203 207 191 190 194 191 183 184 189 188 190 199 200 199 206 211 206 202 212 223 218 209 217 227 212 138 159 183 174 184 189 171 164 166 159 156 166 171 166 162 159 160
302 302 309 303 265 249 251 259 262 260 277 306 313 320 293 276 292 288 238 235 242 238 246 258 237 206 192 188 181 166 163 170 170 168 163 154 155 166 170 181 188 175 150 144 168 185 208 197 195 202 200 195 190 186 187 190 195 200 201 201 203 206 208 206 209 218 218 211 214 218 212 189 168 185 180 174 180 175 166 164 157 157 168 168 159 154 151 157
313 305 294 298 284 268 262 260 261 261 269 275 270 296 286 283 294 280 201 222 252 243 241 233 216 202 183 174 171 164 163 167 169 169 163 153 157 163 167 180 183 162 148 169 181 190 208 187 196 213 199 190 210 198 185 187 196 200 202 203 202 201 204 208 210 212 213 220 230 212 209 213 188 166 177 175 173 178 168 157 152 151 158 162 159 155 152 158
330 318 300 295 287 282 282 280 278 272 270 267 240 231 263 282 288 275 233 226 211 222 253 228 202 201 188 172 158 160 164 163 163 166 158 153 160 162 163 177 178 165 168 185 182 194 220 185 189 211 189 163 249 212 181 183 195 199 201 203 203 202 203 206 205 210 218 229 244 239 217 222 209 161 162 167 158 162 163 155 154 154 159 168 169 164 160 164
338 325 311 310 295 281 282 281 273 256 253 254 238 224 223 257 275 267 237 234 172 155 274 224 189 195 199 185 157 145 149 147 153 155 150 152 160 164 165 170 171 170 177 187 180 191 217 186 180 200 184 165 237 227 185 192 196 198 201 202 205 203 203 204 200 206 220 223 230 244 233 222 206 130 132 152 153 162 170 165 163 162 164 169 173 172 169 168
334 321 313 313 299 285 293 298 301 297 247 221 227 218 206 229 248 234 95 61 121 123 290 225 181 191 211 190 143 67 49 118 134 136 146 157 159 157 163 166 166 170 176 184 180 183 213 202 178 193 198 181 193 204 204 210 206 204 206 202 202 203 201 204 201 203 214 216 217 225 228 216 169 118 125 153 159 167 172 169 169 166 167 170 171 172 170 166
335 330 322 314 293 291 308 318 334 347 337 312 275 200 187 164 171 175 64 40 18 31 11 282 200 187 193 181 139 36 352 4 55 87 142 160 155 153 159 161 165 171 172 177 181 179 198 207 179 193 206 184 184 194 200 216 217 211 210 203 203 204 201 204 205 203 208 216 217 214 225 231 165 139 153 172 172 171 169 171 175 170 170 176 172 168 167 165